OneWeb SL0318

operational
NORAD ID: 49104 Int'l Des: 2021-075 Owner: ONEWEBN Country: UK Constellation: oneweb
LEOCIRCULARPOLARONEWEB_TYPE

About OneWeb SL0318

Description loading...

Live Position

Loading 3D Globe...

Upcoming Passes

Altitude History

Altitude vs Time

uPlot chart will show altitude changes over time

Two-Line Element Set

1 49104U 21075AF 26102.97765189 .00000013 00000-0 -39185-6 0 9993
2 49104 87.9228 348.4220 0001577 87.2666 272.8647 13.18684062228573
Epoch: Apr 12, 2026 • Age: 9 hours

Current Status

Altitude 1217.4 km
Velocity 7.24 km/s
Sub-Earth Point -71.45°S, 17.54°E
Launch Date Aug 21, 2021
Age 4.6 years
Type internet

Technical Details

Classification Payload
Mass 148.00 kg
Dry Mass 140.00 kg
Total Mass 148.00 kg
Length 1.30 m
Diameter 1.00 m
Span 5.00 m
Shape Trapezoid+2 pan
Manufacturer ONEWUS
Bus Type ARROW
Phase Status In Orbit
Owner/State ONEWEBN/UK

Large Constellations

Loading constellations...